TimeEDT,TemperatureF,Dew PointF,Humidity,Sea Level PressureIn,VisibilityMPH,Wind Direction,Wind SpeedMPH,Gust SpeedMPH,PrecipitationIn,Events,Conditions,WindDirDegrees,DateUTC
12:15 AM,67.1,66.9,99,29.98,7.0,East,3.5,-,N/A,,Overcast,100,2013-09-21 04:15:00
12:35 AM,67.1,66.4,98,29.98,7.0,SE,4.6,-,N/A,,Overcast,140,2013-09-21 04:35:00
12:55 AM,67.1,65.7,95,29.98,10.0,SSE,3.5,-,N/A,,Overcast,150,2013-09-21 04:55:00
1:15 AM,67.1,65.3,94,29.98,10.0,Calm,Calm,-,N/A,,Overcast,0,2013-09-21 05:15:00
1:35 AM,67.1,65.3,94,29.98,10.0,Calm,Calm,-,N/A,,Overcast,0,2013-09-21 05:35:00
1:55 AM,66.9,65.5,95,29.98,10.0,Calm,Calm,-,N/A,,Overcast,0,2013-09-21 05:55:00
2:15 AM,66.4,65.5,97,29.97,7.0,ESE,3.5,-,0.02,Rain,Light Rain,110,2013-09-21 06:15:00
2:35 AM,66.6,65.7,97,29.97,10.0,Calm,Calm,-,0.02,,Overcast,0,2013-09-21 06:35:00
2:55 AM,66.4,65.8,98,29.97,7.0,SE,3.5,-,0.02,,Overcast,130,2013-09-21 06:55:00
3:15 AM,66.2,66.0,99,29.96,7.0,Calm,Calm,-,N/A,,Overcast,0,2013-09-21 07:15:00
3:35 AM,66.2,65.8,99,29.96,7.0,Calm,Calm,-,N/A,,Overcast,0,2013-09-21 07:35:00
3:55 AM,66.2,65.8,99,29.95,7.0,ESE,4.6,-,N/A,,Overcast,110,2013-09-21 07:55:00
4:15 AM,66.2,65.7,98,29.95,10.0,ESE,4.6,-,N/A,,Overcast,120,2013-09-21 08:15:00
4:35 AM,66.2,65.5,98,29.94,10.0,SE,4.6,-,N/A,,Overcast,140,2013-09-21 08:35:00
4:55 AM,66.2,65.5,98,29.94,10.0,SSE,4.6,-,N/A,,Overcast,150,2013-09-21 08:55:00
5:15 AM,66.2,65.5,98,29.93,10.0,SE,3.5,-,N/A,,Overcast,140,2013-09-21 09:15:00
5:35 AM,66.2,65.5,98,29.93,10.0,Calm,Calm,-,N/A,,Overcast,0,2013-09-21 09:35:00
5:55 AM,66.2,65.8,99,29.92,7.0,Calm,Calm,-,N/A,,Overcast,0,2013-09-21 09:55:00
6:15 AM,66.2,66.2,100,29.92,7.0,East,4.6,-,N/A,,Overcast,100,2013-09-21 10:15:00
6:35 AM,66.4,66.2,99,29.92,7.0,SE,3.5,-,N/A,,Overcast,130,2013-09-21 10:35:00
6:55 AM,66.4,66.2,99,29.92,7.0,SE,3.5,-,N/A,,Overcast,140,2013-09-21 10:55:00
7:15 AM,66.6,66.4,99,29.92,7.0,Calm,Calm,-,N/A,,Overcast,0,2013-09-21 11:15:00
7:35 AM,66.6,66.4,99,29.92,7.0,Calm,Calm,-,N/A,,Overcast,0,2013-09-21 11:35:00
7:55 AM,66.9,66.6,99,29.92,7.0,Calm,Calm,-,N/A,,Overcast,0,2013-09-21 11:55:00
8:15 AM,67.1,67.1,100,29.92,7.0,SSE,3.5,-,N/A,,Overcast,160,2013-09-21 12:15:00
8:35 AM,67.3,67.1,99,29.91,7.0,South,4.6,-,N/A,,Overcast,170,2013-09-21 12:35:00
8:55 AM,68.0,67.6,99,29.91,7.0,South,4.6,-,N/A,,Overcast,170,2013-09-21 12:55:00
9:15 AM,68.2,68.0,99,29.92,10.0,South,4.6,-,N/A,,Overcast,180,2013-09-21 13:15:00
9:35 AM,68.9,68.0,97,29.92,10.0,SSE,4.6,-,N/A,,Overcast,160,2013-09-21 13:35:00
9:55 AM,69.8,68.4,95,29.91,10.0,SSE,6.9,-,N/A,,Overcast,160,2013-09-21 13:55:00
10:15 AM,70.7,68.7,93,29.91,10.0,SSE,9.2,-,N/A,,Overcast,160,2013-09-21 14:15:00
10:35 AM,71.4,68.9,92,29.91,10.0,South,8.1,-,N/A,,Overcast,170,2013-09-21 14:35:00
10:55 AM,72.1,68.4,88,29.91,10.0,South,6.9,-,N/A,,Overcast,190,2013-09-21 14:55:00
11:15 AM,72.9,68.0,85,29.90,10.0,South,6.9,-,N/A,,Overcast,180,2013-09-21 15:15:00
11:35 AM,73.2,68.0,84,29.89,10.0,South,5.8,-,N/A,,Overcast,170,2013-09-21 15:35:00
11:55 AM,73.9,67.5,80,29.88,10.0,South,8.1,-,N/A,,Overcast,170,2013-09-21 15:55:00
12:15 PM,74.8,66.9,76,29.88,10.0,SSE,9.2,-,N/A,,Overcast,160,2013-09-21 16:15:00
12:35 PM,75.7,66.9,74,29.87,10.0,South,10.4,-,N/A,,Overcast,170,2013-09-21 16:35:00
12:55 PM,76.6,66.7,71,29.86,10.0,SSE,9.2,-,N/A,,Overcast,160,2013-09-21 16:55:00
1:15 PM,77.2,66.7,70,29.85,10.0,South,6.9,-,N/A,,Overcast,180,2013-09-21 17:15:00
1:35 PM,78.4,67.1,68,29.84,10.0,SSE,8.1,-,N/A,,Mostly Cloudy,160,2013-09-21 17:35:00
1:55 PM,78.3,66.7,68,29.83,10.0,South,6.9,-,N/A,,Mostly Cloudy,180,2013-09-21 17:55:00
2:15 PM,78.8,66.7,66,29.82,10.0,South,6.9,-,N/A,,Scattered Clouds,180,2013-09-21 18:15:00
2:35 PM,79.9,66.4,63,29.81,10.0,South,9.2,-,N/A,,Scattered Clouds,190,2013-09-21 18:35:00
2:55 PM,79.9,66.7,64,29.80,10.0,SSE,8.1,-,N/A,,Scattered Clouds,150,2013-09-21 18:55:00
3:15 PM,79.7,67.3,66,29.79,10.0,SSE,5.8,-,N/A,,Mostly Cloudy,150,2013-09-21 19:15:00
3:35 PM,79.2,67.3,67,29.79,10.0,South,9.2,-,N/A,,Light Drizzle,170,2013-09-21 19:35:00
3:55 PM,79.7,67.3,66,29.78,10.0,SSE,10.4,-,N/A,,Mostly Cloudy,160,2013-09-21 19:55:00
4:15 PM,79.0,66.9,66,29.77,10.0,South,5.8,-,N/A,,Clear,170,2013-09-21 20:15:00
4:35 PM,78.8,68.0,69,29.76,10.0,SE,4.6,-,N/A,,Scattered Clouds,140,2013-09-21 20:35:00
4:55 PM,77.4,68.7,75,29.76,7.0,SSE,5.8,-,0.01,Rain,Light Rain,150,2013-09-21 20:55:00
5:15 PM,76.5,69.3,78,29.77,7.0,SSW,4.6,-,0.01,Rain,Rain,210,2013-09-21 21:15:00
5:35 PM,75.2,70.0,84,29.76,10.0,Calm,Calm,-,0.02,,Mostly Cloudy,0,2013-09-21 21:35:00
5:55 PM,74.5,72.7,94,29.76,10.0,Calm,Calm,-,0.02,,Overcast,0,2013-09-21 21:55:00
6:15 PM,74.3,73.2,96,29.76,7.0,Calm,Calm,-,N/A,,Light Drizzle,0,2013-09-21 22:15:00
6:35 PM,74.3,72.9,95,29.76,10.0,SSE,3.5,-,N/A,,Light Drizzle,160,2013-09-21 22:35:00
6:55 PM,74.3,72.7,95,29.75,7.0,South,4.6,-,N/A,Rain,Light Rain,170,2013-09-21 22:55:00
7:15 PM,73.6,72.5,96,29.75,10.0,SSE,5.8,-,N/A,,Light Drizzle,160,2013-09-21 23:15:00
7:35 PM,73.4,72.0,95,29.75,10.0,SSE,8.1,-,N/A,,Light Drizzle,160,2013-09-21 23:35:00
7:55 PM,72.9,71.6,96,29.75,10.0,South,6.9,-,N/A,,Mostly Cloudy,170,2013-09-21 23:55:00
8:15 PM,72.5,71.6,97,29.75,10.0,South,4.6,-,N/A,,Overcast,180,2013-09-22 00:15:00
8:35 PM,72.5,71.6,97,29.76,10.0,South,4.6,-,N/A,,Overcast,170,2013-09-22 00:35:00
8:55 PM,72.5,71.6,97,29.76,10.0,Calm,Calm,-,0.01,,Light Drizzle,0,2013-09-22 00:55:00
9:15 PM,72.1,71.6,98,29.76,10.0,Calm,Calm,-,N/A,Rain,Light Rain,0,2013-09-22 01:15:00
9:35 PM,71.8,71.6,99,29.76,7.0,Calm,Calm,-,N/A,,Drizzle,0,2013-09-22 01:35:00
9:55 PM,71.8,71.4,99,29.75,10.0,SE,3.5,-,0.01,,Overcast,140,2013-09-22 01:55:00
10:15 PM,71.6,71.6,100,29.75,10.0,Calm,Calm,-,N/A,Rain,Light Rain,0,2013-09-22 02:15:00
10:35 PM,71.6,71.4,99,29.75,7.0,SSE,3.5,-,0.01,Rain,Light Rain,160,2013-09-22 02:35:00
10:55 PM,71.6,71.6,100,29.75,5.0,Calm,Calm,-,0.04,Rain,Rain,0,2013-09-22 02:55:00
11:15 PM,71.6,71.6,100,29.74,5.0,Calm,Calm,-,0.02,Rain,Light Rain,0,2013-09-22 03:15:00
11:35 PM,71.6,71.6,100,29.74,5.0,Calm,Calm,-,0.04,Rain,Rain,0,2013-09-22 03:35:00
11:55 PM,71.6,71.6,100,29.74,7.0,Calm,Calm,-,0.07,Rain,Light Rain,0,2013-09-22 03:55:00